Flag for Japan Weather past 2 weeks in Kagoshima, Japan

Now
65 °F

Mild.


Feels Like: 65 °F
Forecast: 58 / 71 °F
Wind: 6 mph from Northeast

Location: Kagoshima


UV Index: 7 (High)

Visibility: N/A


Pressure: 29.99 "Hg

Humidity: 71%

Dew point: 56 °F

Location of KagoshimaLocation

Historic Weather in Kagoshima

°F

Kagoshima temperature yesterday

Maximum temperature yesterday: 72 °F (at 4:00 PM)
Minimum temperature yesterday: 63 °F (at 11:00 PM)
Average temperature yesterday: 67 °F

Past Weeks' High & Low Weather Summary

 TemperatureHumidityPressure
High76 °F (Apr 10, 3:00 PM)95% (Apr 13, 8:00 AM)30.21 "Hg (Apr 13, 8:00 AM)
Low44 °F (Apr 7, 5:00 AM)25% (Apr 15, 4:00 PM)29.75 "Hg (Apr 13, 4:00 PM)
Average61 °F66%30.01 "Hg
* Reported Apr 4 7:00 AM — Apr 19 7:00 AM, Kagoshima, Weather by CustomWeather, © 2014

Note: Actual official high and low records may vary slightly from our data, if they occured in-between our weather recording intervals... More about our weather records

Advertising

Historic Weather Conditions — Data for Previous 24 hours

 ConditionsComfort  
Time TempWeatherWind HumidityBarometerVisibility
7:00 AM
Apr 19
64 °FMild.6 mph79%29.96 "HgN/A
5:00 AM64 °FMild.6 mph86%29.95 "HgN/A
4:00 AM64 °FMild.1 mph87%29.93 "HgN/A
3:00 AM64 °FFog.2 mph85%29.93 "Hg5 mi
2:00 AM63 °FMild.2 mph87%29.92 "HgN/A
1:00 AM63 °FMild.2 mph87%29.93 "HgN/A
12:00 AM63 °FMild.5 mph87%29.93 "HgN/A
11:00 PM
Apr 18
63 °FMild.3 mph87%29.93 "HgN/A
10:00 PM64 °FMild.2 mph83%29.93 "HgN/A
9:00 PM64 °FPassing clouds.5 mph83%29.93 "Hg9 mi
8:00 PM65 °FMild.8 mph80%29.90 "HgN/A
7:00 PM67 °FMild.8 mph80%29.90 "HgN/A
6:00 PM68 °FOvercast.9 mph76%29.88 "Hg9 mi
5:00 PM70 °FMild.9 mph69%29.86 "HgN/A
4:00 PM72 °FMild.10 mph66%29.85 "HgN/A
3:00 PM72 °FPartly sunny.12 mph70%29.86 "Hg7 mi
2:00 PM69 °FMild.14 mph78%29.87 "HgN/A
1:00 PM68 °FMild.14 mph83%29.88 "HgN/A
12:00 PM68 °FSprinkles. Overcast.8 mph86%29.88 "Hg6 mi
11:00 AM66 °FMild.5 mph91%29.90 "HgN/A
10:00 AM66 °FMild.7 mph90%29.90 "HgN/A
9:00 AM66 °FOvercast.7 mph92%29.89 "Hg5 mi
Weather by CustomWeather, © 2014

See weather overview